Total_Precipitation_Accumulation
0.22 0.22 0.25 0.22 0.22 0.23 0.27 0.38 0.56 0.42 0.11 0.02 0.02 0.04 0.08 0.14 0.14 0.13 0.12 0.15 0.20 0.25 0.30 0.34 0.42 0.60 0.92 1.40 1.98 2.89 3.48 3.15 2.39 1.86 1.74 2.00 2.40 2.86
0.28 0.28 0.26 0.25 0.27 0.29 0.32 0.33 0.42 0.53 0.32 0.05 0.04 0.05 0.10 0.17 0.19 0.15 0.14 0.17 0.18 0.20 0.21 0.24 0.30 0.42 0.65 0.97 1.38 1.96 2.85 3.34 3.12 2.62 2.19 2.22 2.38 2.72
0.28 0.30 0.29 0.30 0.38 0.41 0.44 0.43 0.39 0.44 0.45 0.13 0.04 0.06 0.14 0.23 0.23 0.17 0.16 0.15 0.13 0.15 0.17 0.21 0.25 0.34 0.50 0.72 0.98 1.34 1.97 2.74 3.20 3.23 2.87 2.57 2.48 2.52
0.33 0.34 0.36 0.37 0.42 0.47 0.54 0.55 0.48 0.43 0.49 0.33 0.12 0.10 0.17 0.27 0.30 0.24 0.20 0.17 0.12 0.13 0.17 0.22 0.28 0.34 0.44 0.58 0.76 1.01 1.37 1.93 2.52 2.94 3.03 2.72 2.55 2.57
0.37 0.42 0.45 0.47 0.46 0.48 0.59 0.65 0.60 0.53 0.54 0.51 0.28 0.15 0.17 0.27 0.37 0.34 0.28 0.25 0.19 0.16 0.17 0.20 0.25 0.32 0.39 0.48 0.63 0.80 0.99 1.20 1.63 2.24 2.82 2.91 2.70 2.65
0.33 0.36 0.46 0.59 0.64 0.69 0.71 0.70 0.73 0.74 0.69 0.64 0.46 0.29 0.25 0.30 0.45 0.50 0.42 0.35 0.30 0.24 0.21 0.20 0.23 0.29 0.34 0.37 0.42 0.54 0.73 1.00 1.32 1.78 2.27 2.69 2.76 2.70
0.30 0.30 0.40 0.63 0.82 1.02 1.08 0.97 0.97 1.04 0.97 0.90 0.76 0.58 0.44 0.44 0.53 0.56 0.61 0.51 0.45 0.36 0.27 0.21 0.22 0.21 0.22 0.28 0.33 0.39 0.52 0.72 0.98 1.32 1.75 2.15 2.48 2.66
0.34 0.30 0.37 0.59 0.75 0.87 1.00 1.01 1.06 1.21 1.27 1.20 1.05 0.85 0.61 0.50 0.53 0.65 0.78 0.83 0.70 0.51 0.40 0.32 0.29 0.27 0.22 0.21 0.27 0.33 0.44 0.59 0.80 1.05 1.36 1.70 2.07 2.41
0.33 0.31 0.34 0.46 0.59 0.65 0.70 0.73 0.78 0.94 1.17 1.29 1.24 0.93 0.74 0.61 0.71 0.83 0.84 0.93 0.83 0.75 0.73 0.63 0.42 0.35 0.28 0.29 0.34 0.34 0.42 0.52 0.64 0.83 1.11 1.38 1.69 2.04
0.36 0.33 0.28 0.33 0.46 0.63 0.70 0.65 0.60 0.69 0.95 1.17 1.34 1.15 0.95 0.92 1.08 1.24 1.25 1.20 1.03 0.96 0.96 1.02 0.71 0.50 0.40 0.36 0.36 0.34 0.38 0.46 0.55 0.67 0.87 1.10 1.34 1.67
0.36 0.34 0.27 0.26 0.43 0.61 0.61 0.56 0.49 0.55 0.68 0.90 1.05 1.07 1.06 1.17 1.39 1.70 1.78 1.68 1.41 1.15 1.06 1.08 1.02 0.88 0.77 0.62 0.51 0.43 0.39 0.41 0.49 0.59 0.71 0.89 1.11 1.47
0.34 0.33 0.35 0.37 0.47 0.54 0.51 0.53 0.60 0.55 0.51 0.54 0.57 0.60 0.66 0.77 1.10 1.52 1.76 1.79 1.56 1.46 1.28 1.14 1.20 1.23 1.38 1.10 0.79 0.56 0.44 0.45 0.47 0.53 0.60 0.69 0.90 1.09
0.38 0.36 0.31 0.41 0.46 0.47 0.50 0.52 0.67 0.62 0.53 0.57 0.56 0.51 0.49 0.57 0.75 1.06 1.46 1.76 1.77 1.59 1.40 1.43 1.55 1.30 1.36 1.33 1.05 0.78 0.54 0.47 0.46 0.53 0.59 0.64 0.73 0.82
0.40 0.34 0.30 0.39 0.43 0.47 0.48 0.52 0.58 0.58 0.53 0.51 0.46 0.44 0.46 0.53 0.65 0.82 1.07 1.36 1.54 1.49 1.33 1.46 1.79 1.50 1.25 1.12 1.04 0.96 0.72 0.59 0.50 0.50 0.51 0.68 0.78 0.81
0.51 0.51 0.44 0.47 0.47 0.40 0.39 0.44 0.45 0.42 0.48 0.50 0.45 0.39 0.43 0.53 0.59 0.66 0.75 0.97 1.17 1.23 1.26 1.36 1.61 1.61 1.44 1.20 0.91 0.84 0.83 0.82 0.67 0.58 0.56 0.57 0.60 0.64
0.58 0.56 0.54 0.50 0.42 0.34 0.31 0.30 0.28 0.32 0.43 0.48 0.44 0.38 0.36 0.41 0.51 0.63 0.73 0.84 1.05 1.13 1.21 1.37 1.61 1.82 1.71 1.20 0.95 0.81 0.72 0.89 0.86 0.72 0.64 0.61 0.57 0.51
0.63 0.62 0.53 0.45 0.41 0.34 0.27 0.23 0.22 0.26 0.32 0.35 0.39 0.41 0.40 0.41 0.44 0.53 0.73 0.85 1.01 1.07 1.18 1.43 1.70 1.82 1.84 1.59 1.28 0.94 0.71 0.71 0.79 0.76 0.73 0.73 0.72 0.61
0.66 0.64 0.47 0.36 0.34 0.30 0.27 0.24 0.20 0.21 0.23 0.29 0.36 0.39 0.43 0.46 0.47 0.49 0.64 0.83 0.96 1.02 1.08 1.27 1.61 1.85 1.97 1.94 1.55 1.11 0.84 0.77 0.87 0.87 0.78 0.77 0.83 0.78
0.54 0.45 0.36 0.30 0.28 0.26 0.24 0.24 0.21 0.18 0.21 0.27 0.31 0.33 0.37 0.43 0.48 0.50 0.56 0.70 0.82 0.94 1.05 1.16 1.41 1.73 1.87 1.95 1.91 1.42 1.04 0.90 0.99 1.13 1.01 0.80 0.73 0.78
0.36 0.34 0.32 0.29 0.28 0.29 0.27 0.26 0.24 0.22 0.23 0.24 0.25 0.27 0.32 0.40 0.44 0.46 0.51 0.65 0.75 0.85 0.96 1.06 1.28 1.55 1.71 1.65 1.68 1.65 1.46 1.15 1.03 1.19 1.19 1.02 0.89 0.96
0.30 0.30 0.29 0.31 0.31 0.30 0.28 0.26 0.26 0.23 0.20 0.21 0.21 0.22 0.25 0.33 0.38 0.38 0.45 0.53 0.64 0.75 0.83 0.92 1.10 1.30 1.52 1.56 1.45 1.39 1.56 1.58 1.22 1.12 1.20 1.21 1.15 1.15
0.28 0.30 0.28 0.30 0.32 0.31 0.29 0.27 0.26 0.22 0.19 0.20 0.19 0.19 0.20 0.27 0.32 0.34 0.40 0.48 0.54 0.63 0.74 0.84 0.97 1.18 1.44 1.58 1.49 1.32 1.43 1.65 1.64 1.41 1.26 1.16 1.13 1.08
0.32 0.33 0.31 0.30 0.31 0.31 0.30 0.27 0.25 0.22 0.19 0.19 0.19 0.19 0.20 0.23 0.24 0.30 0.36 0.42 0.49 0.54 0.65 0.81 0.95 1.10 1.33 1.50 1.51 1.38 1.33 1.44 1.49 1.46 1.55 1.35 0.96 0.71